Weather History for KDNV - April, 2014

Change the Weather History Date:

Tuesday, April 1, 2014

  Actual Average (KLAF) Record (KLAF)
Temperature  
Mean Temperature 48 °F 47 °F  
Max Temperature 58 °F 57 °F 82 °F (2003)
Min Temperature 37 °F 36 °F 21 °F (1964)
Degree Days  
Heating Degree Days 18 18  
Month to date heating degree days 18  
Since 1 July heating degree days 5103  
Cooling Degree Days 0 0  
Month to date cooling degree days 0  
Year to date cooling degree days 1  
Moisture  
Dew Point 33 °F    
Average Humidity 55    
Maximum Humidity 75    
Minimum Humidity 41    
Precipitation  
Precipitation 0.00 in 0.10 in 0.76 in (1959)
Month to date precipitation 0.10  
Year to date precipitation 6.39  
Sea Level Pressure  
Sea Level Pressure 29.93 in    
Wind  
Wind Speed 16 mph (WSW)    
Max Wind Speed 31 mph    
Max Gust Speed 39 mph    
Visibility 10 miles    
Events      
T = Trace of Precipitation, MM = Missing Value Source: NWS Daily Summary

Daily Weather History Graph

Daily Weather History Graph

Search for Another Location

Airport or City:

Trip Planner

Search our weather history database for the weather conditions in past years. The results will help you decide how hot, cold, wet, or windy it might be!

Date:

Astronomy

Apr. 01, 2014 Rise Set
Actual Time 6:34 AM CDT 7:14 PM CDT
Civil Twilight 6:06 AM CDT 7:42 PM CDT
Nautical Twilight 5:34 AM CDT 8:14 PM CDT
Astronomical Twilight 5:01 AM CDT 8:48 PM CDT
Moon 7:36 AM CDT (4/1) 9:37 PM CDT (4/1)
Length of Visible Light 13h 35m
Length of Day
12h 40m
Waxing Crescent, 5% of the Moon is Illuminated
Apr 1
Waxing Crescent
Apr 7
First Quarter
Apr 15
Full
Apr 22
Last Quarter
Apr 29
New

Hourly Weather History & Observations

Time (CDT) Temp. Windchill Dew Point Humidity Pressure Visibility Wind Dir Wind Speed Gust Speed Precip Events Conditions
12:15 AM 58.3 °F - 37.6 °F 46% 29.82 in 10.0 mi South 16.1 mph - N/A   Overcast
12:35 AM 58.1 °F - 37.6 °F 46% 29.81 in 10.0 mi South 13.8 mph - N/A   Overcast
1:15 AM 57.0 °F - 38.3 °F 50% 29.81 in 10.0 mi South 13.8 mph - N/A   Overcast
1:35 AM 57.4 °F - 38.7 °F 50% 29.80 in 10.0 mi SSW 13.8 mph 21.9 mph N/A   Overcast
1:55 AM 57.0 °F - 39.0 °F 51% 29.80 in 10.0 mi SSW 18.4 mph 21.9 mph N/A   Mostly Cloudy
2:15 AM 55.9 °F - 39.4 °F 54% 29.79 in 10.0 mi SSW 17.3 mph 23.0 mph N/A   Clear
2:35 AM 55.9 °F - 39.9 °F 55% 29.78 in 10.0 mi SSW 16.1 mph 27.6 mph N/A   Clear
2:55 AM 55.0 °F - 40.5 °F 58% 29.78 in 10.0 mi SSW 18.4 mph 25.3 mph N/A   Clear
3:15 AM 54.3 °F - 41.0 °F 61% 29.77 in 10.0 mi SSW 18.4 mph 21.9 mph N/A   Clear
3:35 AM 53.8 °F - 41.9 °F 64% 29.76 in 10.0 mi SSW 18.4 mph 24.2 mph N/A   Clear
3:55 AM 53.4 °F - 42.4 °F 66% 29.76 in 10.0 mi SW 18.4 mph 24.2 mph N/A   Clear
4:15 AM 52.7 °F - 42.8 °F 69% 29.76 in 10.0 mi SSW 15.0 mph 23.0 mph N/A   Scattered Clouds
4:35 AM 52.0 °F - 42.8 °F 71% 29.76 in 10.0 mi SSW 15.0 mph - N/A   Scattered Clouds
4:55 AM 52.5 °F - 43.3 °F 71% 29.76 in 10.0 mi SW 18.4 mph 25.3 mph N/A   Clear
5:15 AM 52.2 °F - 43.3 °F 72% 29.77 in 10.0 mi WSW 19.6 mph 27.6 mph N/A   Clear
5:35 AM 49.1 °F - 40.6 °F 73% 29.79 in 10.0 mi West 18.4 mph 21.9 mph N/A   Clear
5:55 AM 46.6 °F - 39.2 °F 75% 29.81 in 10.0 mi West 17.3 mph 23.0 mph N/A   Clear
6:15 AM 45.5 °F 38.3 °F 36.1 °F 70% 29.82 in 10.0 mi West 17.3 mph - N/A   Mostly Cloudy
6:35 AM 43.9 °F 37.2 °F 34.2 °F 69% 29.83 in 10.0 mi West 13.8 mph 20.7 mph N/A   Scattered Clouds
6:55 AM 43.9 °F 36.5 °F 33.6 °F 67% 29.85 in 10.0 mi WSW 16.1 mph 24.2 mph N/A   Clear
7:15 AM 43.3 °F 34.7 °F 32.4 °F 65% 29.86 in 10.0 mi WSW 20.7 mph 24.2 mph N/A   Clear
7:35 AM 43.0 °F 33.8 °F 31.6 °F 64% 29.87 in 10.0 mi West 23.0 mph 27.6 mph N/A   Clear
7:55 AM 42.4 °F 32.4 °F 30.6 °F 63% 29.89 in 10.0 mi West 26.5 mph 39.1 mph N/A   Clear
8:15 AM 41.4 °F 32.1 °F 28.6 °F 60% 29.90 in 10.0 mi West 20.7 mph 32.2 mph N/A   Clear
8:35 AM 40.6 °F 31.2 °F 26.8 °F 58% 29.92 in 10.0 mi WSW 20.7 mph 27.6 mph N/A   Clear
8:55 AM 38.7 °F 26.5 °F 23.9 °F 55% 29.93 in 10.0 mi WSW 31.1 mph 36.8 mph N/A   Clear
9:15 AM 37.2 °F 25.6 °F 23.5 °F 58% 29.94 in 10.0 mi West 25.3 mph 31.1 mph N/A   Clear
9:35 AM 37.8 °F 27.4 °F 24.1 °F 58% 29.95 in 10.0 mi West 20.7 mph 29.9 mph N/A   Clear
9:55 AM 39.2 °F 29.8 °F 24.3 °F 55% 29.95 in 10.0 mi WSW 18.4 mph 28.8 mph N/A   Clear
10:15 AM 39.9 °F 30.0 °F 25.0 °F 55% 29.95 in 10.0 mi WSW 21.9 mph 28.8 mph N/A   Clear
10:35 AM 41.2 °F 31.9 °F 25.5 °F 54% 29.95 in 10.0 mi WSW 20.7 mph 27.6 mph N/A   Clear
10:55 AM 41.7 °F 31.6 °F 25.9 °F 53% 29.95 in 10.0 mi WSW 25.3 mph 28.8 mph N/A   Clear
11:15 AM 42.4 °F 33.1 °F 26.1 °F 52% 29.96 in 10.0 mi WSW 23.0 mph 29.9 mph N/A   Clear
11:35 AM 43.9 °F 34.5 °F 27.0 °F 51% 29.96 in 10.0 mi WSW 25.3 mph 31.1 mph N/A   Clear
11:55 AM 44.8 °F 36.9 °F 27.5 °F 51% 29.96 in 10.0 mi WSW 19.6 mph 31.1 mph N/A   Clear
12:15 PM 47.1 °F - 29.3 °F 50% 29.97 in 10.0 mi SW 20.7 mph 25.3 mph N/A   Clear
12:35 PM 48.9 °F - 29.8 °F 48% 29.97 in 10.0 mi WSW 23.0 mph 28.8 mph N/A   Clear
12:55 PM 48.9 °F - 29.5 °F 47% 29.97 in 10.0 mi WSW 21.9 mph 27.6 mph N/A   Clear
1:15 PM 49.6 °F - 29.8 °F 47% 29.98 in 10.0 mi WSW 19.6 mph 29.9 mph N/A   Clear
1:35 PM 50.7 °F - 30.6 °F 46% 29.98 in 10.0 mi WSW 19.6 mph 27.6 mph N/A   Clear
1:55 PM 51.3 °F - 30.4 °F 45% 29.98 in 10.0 mi West 21.9 mph 34.5 mph N/A   Clear
2:15 PM 51.8 °F - 30.7 °F 45% 29.98 in 10.0 mi WSW 21.9 mph 29.9 mph N/A   Clear
2:35 PM 52.9 °F - 31.1 °F 43% 29.98 in 10.0 mi WSW 23.0 mph 26.5 mph N/A   Clear
2:55 PM 54.1 °F - 31.5 °F 42% 29.98 in 10.0 mi WSW 23.0 mph 31.1 mph N/A   Clear
3:15 PM 54.9 °F - 31.5 °F 41% 29.98 in 10.0 mi WSW 19.6 mph 27.6 mph N/A   Clear
3:35 PM 54.7 °F - 31.3 °F 41% 29.99 in 10.0 mi West 20.7 mph 33.4 mph N/A   Clear
3:55 PM 54.3 °F - 31.1 °F 41% 29.98 in 10.0 mi West 18.4 mph 24.2 mph N/A   Clear
4:15 PM 53.6 °F - 30.9 °F 42% 29.98 in 10.0 mi WNW 13.8 mph 26.5 mph N/A   Clear
4:35 PM 53.6 °F - 31.1 °F 42% 29.98 in 10.0 mi West 17.3 mph - N/A   Clear
4:55 PM 52.7 °F - 30.4 °F 42% 29.98 in 10.0 mi West 11.5 mph 24.2 mph N/A   Scattered Clouds
5:15 PM 52.7 °F - 30.9 °F 43% 29.98 in 10.0 mi West 17.3 mph - N/A   Scattered Clouds
5:35 PM 52.3 °F - 31.3 °F 45% 29.99 in 10.0 mi West 13.8 mph - N/A   Scattered Clouds
5:55 PM 53.2 °F - 31.5 °F 43% 29.99 in 10.0 mi West 8.1 mph - N/A   Clear
6:15 PM 52.3 °F - 31.6 °F 45% 29.99 in 10.0 mi West 9.2 mph - N/A   Clear
6:35 PM 50.9 °F - 31.6 °F 48% 30.02 in 10.0 mi WSW 12.7 mph - N/A   Clear
6:55 PM 49.3 °F - 31.6 °F 51% 30.02 in 10.0 mi WSW 9.2 mph - N/A   Clear
7:15 PM 47.3 °F - 31.1 °F 53% 30.03 in 10.0 mi West 9.2 mph - N/A   Clear
7:35 PM 46.6 °F - 31.6 °F 56% 30.04 in 10.0 mi West 8.1 mph - N/A   Scattered Clouds
7:55 PM 48.0 °F - 31.6 °F 53% 30.07 in 10.0 mi WSW 6.9 mph - N/A   Mostly Cloudy
8:15 PM 46.9 °F - 31.3 °F 55% 30.06 in 10.0 mi West 4.6 mph - N/A   Scattered Clouds
8:35 PM 47.1 °F - 31.1 °F 54% 30.06 in 10.0 mi West 4.6 mph - N/A   Clear
8:55 PM 45.5 °F - 32.0 °F 59% 30.06 in 10.0 mi Calm Calm - N/A   Scattered Clouds
9:15 PM 45.1 °F 43.7 °F 31.8 °F 60% 30.06 in 10.0 mi NW 3.5 mph - N/A   Mostly Cloudy
9:35 PM 44.8 °F - 32.4 °F 62% 30.06 in 10.0 mi Calm Calm - N/A   Mostly Cloudy
9:55 PM 45.9 °F 42.9 °F 32.0 °F 58% 30.05 in 10.0 mi NNW 5.8 mph - N/A   Mostly Cloudy
10:15 PM 44.8 °F 40.4 °F 32.5 °F 62% 30.04 in 10.0 mi NNW 8.1 mph - N/A   Overcast
10:35 PM 44.6 °F 40.7 °F 33.3 °F 64% 30.04 in 10.0 mi North 6.9 mph - N/A   Overcast
10:55 PM 45.3 °F 41.1 °F 32.0 °F 60% 30.06 in 10.0 mi NNW 8.1 mph - N/A   Overcast
11:15 PM 45.5 °F 44.2 °F 32.0 °F 59% 30.07 in 10.0 mi NW 3.5 mph - N/A   Overcast
11:35 PM 43.7 °F - 33.8 °F 68% 30.05 in 10.0 mi Calm Calm - N/A   Overcast
11:55 PM 44.1 °F 40.1 °F 33.1 °F 65% 30.05 in 10.0 mi NNW 6.9 mph - N/A   Overcast